Temperature
18 18 18 18 18 18 18 18 18 18 18 18 18 18 18 18 18 18 18 18 18 18 18 18 18 18 18 18 18 18 18 18 18 18 18 18 18 18 18 18 18 18 18
18 18 18 18 18 18 18 18 18 18 18 18 18 18 18 18 18 18 18 18 18 18 18 18 18 18 18 18 18 18 17 17 18 18 18 18 18 18 18 18 17 17 17
18 18 18 18 18 18 18 18 18 18 18 18 18 18 18 18 18 18 18 18 18 18 18 18 18 18 18 18 17 17 17 17 17 17 17 18 17 17 17 17 17 18 17
18 18 18 18 18 18 17 18 18 18 18 18 18 18 18 17 18 18 18 18 18 18 18 18 17 17 17 17 17 17 17 17 17 17 17 17 17 17 17 17 17 17 17
18 18 18 18 18 17 17 17 17 17 17 17 17 17 17 17 17 17 17 17 17 17 17 17 17 17 17 17 17 17 17 17 17 17 17 17 17 17 17 17 17 17 17
18 18 18 17 17 17 17 17 17 17 17 17 17 17 17 17 17 17 17 17 17 17 17 17 17 17 17 17 17 17 17 17 17 17 17 17 17 17 17 17 17 17 17
18 18 17 17 17 17 17 17 17 17 17 17 17 17 17 17 17 17 17 17 17 17 17 17 17 17 17 16 17 17 17 17 17 17 17 17 17 17 17 17 17 17 17
18 18 17 17 17 17 17 17 17 17 17 17 17 17 17 17 17 17 17 17 17 17 17 17 17 17 16 16 16 16 16 16 17 17 17 17 17 17 17 17 17 17 17
18 18 17 17 17 17 17 17 17 17 17 17 17 16 16 16 16 16 16 17 16 17 16 16 16 16 16 16 16 16 16 16 16 16 16 16 17 17 17 17 17 17 17
18 18 17 17 17 17 17 17 17 17 16 16 16 16 16 16 16 16 16 16 16 16 16 16 16 16 16 16 16 16 16 16 16 16 16 16 16 16 16 16 16 16 16
18 18 18 17 17 17 17 17 17 16 16 16 16 16 16 16 16 16 16 16 16 16 16 16 16 16 16 16 16 16 16 16 16 16 16 16 16 16 16 16 16 16 16
18 18 17 17 17 17 17 17 16 16 16 16 16 16 16 16 16 16 16 16 16 16 16 16 16 16 16 16 16 16 16 16 16 16 16 16 16 16 16 16 16 16 16
18 18 18 17 17 17 17 17 16 16 16 16 16 16 16 16 16 16 16 16 16 16 16 16 16 16 16 16 16 16 16 16 15 15 15 15 15 15 15 16 16 16 15
18 18 18 17 17 17 17 17 17 16 16 16 16 16 16 16 16 16 16 16 16 16 16 16 16 16 16 16 16 15 15 15 15 15 15 15 15 15 15 15 15 15 15
18 18 18 18 17 17 17 17 17 16 16 16 16 16 16 16 16 16 16 16 16 16 16 16 16 16 16 16 15 15 15 15 15 15 15 15 15 15 15 15 15 15 15
18 18 18 18 17 17 17 17 17 16 16 16 16 16 16 16 16 16 16 16 16 16 15 16 16 16 15 15 15 15 15 15 15 15 15 15 15 15 15 15 15 15 15
19 18 18 18 17 17 17 17 17 16 16 16 16 16 16 16 16 16 16 16 16 15 15 15 15 15 15 15 15 15 15 15 15 15 15 15 15 15 15 14 15 15 15
19 18 18 18 18 17 17 17 17 17 16 16 16 16 16 16 16 16 16 16 15 15 15 15 15 15 15 15 15 15 14 14 14 14 14 14 14 14 14 14 14 14 14
19 19 18 18 18 17 17 17 17 17 16 16 16 16 16 16 16 16 16 15 15 15 15 15 15 15 15 15 15 14 14 14 14 14 14 14 14 14 14 14 14 14 14
19 19 18 18 18 17 17 17 17 16 16 16 16 16 16 16 16 16 15 15 15 15 15 15 15 15 15 15 15 14 14 14 14 14 14 14 14 14 14 14 14 14 14
19 19 18 18 18 17 17 17 17 16 16 16 16 16 16 16 16 15 15 15 15 15 15 15 15 15 15 15 15 14 14 14 14 14 14 14 14 13 14 14 14 14 14
19 19 18 18 18 17 17 17 17 16 16 16 16 16 16 16 16 16 15 15 15 15 15 15 15 15 15 15 15 14 14 14 14 13 13 13 13 13 13 13 13 13 13
19 19 18 18 18 17 17 17 16 16 16 16 16 16 16 16 16 16 15 15 15 15 15 15 15 15 15 15 15 15 14 14 13 13 13 13 13 13 13 13 13 13 13
19 19 18 18 18 17 17 17 17 16 16 16 16 16 16 16 15 15 15 15 15 15 15 15 15 15 15 15 15 15 15 15 14 13 13 13 13 13 13 13 13 13 13
19 19 18 18 18 17 17 17 17 16 16 16 16 16 16 16 15 15 15 15 15 15 15 15 15 15 15 15 15 15 15 15 15 14 13 13 13 12 12 13 12 13 13
19 19 18 18 17 17 17 17 16 16 16 16 16 16 16 16 15 15 15 15 15 15 15 15 15 15 15 15 15 15 15 15 15 14 13 13 12 12 12 12 12 12 12
Wind_Speed
1 3 7 8 9 9 10 10 10 11 11 12 12 12 12 12 12 12 11 11 11 10 10 10 10 10 10 10 9 9 9 9 9 9 9 9 9 9 9 9 8 7 7
5 6 9 9 10 10 10 10 10 11 11 11 12 12 11 11 11 11 10 10 10 10 10 10 9 9 9 9 9 9 8 8 9 9 9 9 9 8 8 8 8 7 8
7 7 9 10 10 10 10 10 10 11 11 11 11 11 10 10 10 10 10 10 10 10 9 9 9 9 9 8 8 8 8 8 9 9 9 7 7 9 9 9 9 9 8
8 8 9 10 10 10 10 10 10 10 11 10 10 10 10 10 10 10 10 10 9 9 9 8 8 8 8 7 7 8 8 9 9 9 7 6 6 9 9 8 8 8 8
8 8 10 11 10 10 10 9 10 10 10 10 9 9 9 9 9 9 9 9 9 8 8 8 8 7 7 7 7 8 9 10 11 10 8 7 7 8 9 9 8 8 7
7 9 11 11 11 10 10 9 9 9 9 9 9 9 9 9 9 9 9 9 8 8 8 8 8 7 8 8 8 9 11 11 11 9 8 7 6 8 9 9 8 7 7
7 8 10 11 11 10 10 9 9 9 8 8 9 8 8 8 9 9 9 8 8 8 8 7 7 7 8 9 10 11 12 11 10 9 7 6 7 8 8 8 8 8 7
8 8 9 10 10 10 9 9 9 8 8 8 8 8 8 8 8 8 8 8 8 8 8 8 7 8 8 10 11 12 11 11 9 8 7 7 7 8 8 8 8 7 7
7 7 7 8 8 9 9 8 8 8 8 8 7 7 7 7 7 8 8 8 8 8 8 8 7 8 9 11 12 12 13 12 9 7 7 7 8 8 9 9 9 9 9
6 6 6 7 7 6 7 7 7 7 8 7 7 7 7 7 7 6 7 7 8 8 8 8 8 8 9 11 12 13 12 11 9 8 6 7 10 10 10 10 10 10 9
6 5 5 6 6 6 6 6 6 6 6 6 5 6 5 5 5 5 6 7 7 8 8 7 7 8 9 10 12 12 11 9 9 7 7 9 10 11 11 11 11 11 10
6 6 6 6 6 5 5 5 4 4 4 4 4 4 5 5 5 5 6 7 7 7 6 6 6 7 8 9 10 11 9 9 8 7 8 10 10 11 11 11 11 11 11
7 7 6 6 6 5 3 4 3 2 2 3 4 5 5 5 5 5 4 4 5 5 5 5 5 6 7 8 9 9 9 9 8 8 9 11 11 11 12 12 12 12 11
7 7 7 6 5 5 5 4 3 3 2 3 5 7 6 4 3 3 3 3 4 4 4 4 4 6 7 8 9 8 8 8 8 8 9 11 11 12 12 12 12 12 12
7 7 7 7 6 4 4 3 3 3 3 4 5 6 7 4 3 3 2 3 3 4 4 4 4 5 6 7 9 8 7 8 8 8 8 11 11 12 12 12 13 13 13
8 8 7 7 6 5 4 3 3 4 4 5 5 6 7 7 5 3 2 3 3 4 5 5 5 5 5 5 6 7 7 7 8 8 8 9 11 12 13 13 13 13 14
8 7 7 8 7 6 5 4 4 4 5 4 4 6 7 8 7 5 3 3 4 6 7 6 7 6 5 6 6 6 6 6 7 7 8 8 9 12 13 14 14 14 14
8 7 7 8 7 6 5 4 4 5 5 4 5 6 7 8 8 6 4 3 5 6 5 4 4 5 5 5 5 4 5 5 6 6 7 8 8 10 13 15 15 15 15
8 8 6 6 7 6 5 5 4 4 4 4 5 5 6 7 8 7 4 4 6 5 4 4 4 4 4 4 4 4 4 4 4 5 5 7 8 9 11 13 15 16 16
7 7 7 6 6 5 4 4 3 3 3 3 4 5 7 7 8 8 5 5 6 4 4 4 5 4 3 4 5 5 4 4 4 4 4 5 6 8 10 11 11 13 15
6 6 7 7 6 5 4 4 3 2 2 2 2 5 6 7 8 7 5 4 5 4 4 5 4 4 3 3 5 4 5 5 5 4 4 4 5 7 9 9 10 10 11
7 7 7 7 7 6 5 4 3 3 2 2 1 3 5 6 7 7 6 4 4 5 5 4 4 3 2 2 3 3 3 4 5 5 3 4 5 6 7 8 9 9 10
8 9 9 8 7 7 6 4 4 3 3 2 2 1 2 4 6 7 7 5 5 5 5 4 4 4 2 0 1 4 4 2 1 4 4 4 4 4 4 6 7 8 9
9 9 9 9 8 7 7 7 7 5 3 3 2 2 1 3 4 6 6 6 5 4 5 4 4 3 3 1 0 1 2 4 3 1 3 4 4 4 3 5 6 7 8
8 8 8 8 7 7 7 8 8 5 4 2 2 2 1 1 2 4 6 6 5 4 4 4 3 3 3 3 2 1 3 2 3 4 2 1 3 3 3 4 5 5 6
7 7 7 8 7 7 8 8 9 8 6 5 4 3 2 1 1 3 4 5 5 4 4 4 4 4 3 3 2 2 3 3 3 3 3 2 2 2 3 3 4 4 5
Wind_Direction
136 134 120 116 112 105 101 99 97 98 98 96 94 94 94 92 93 93 94 93 92 90 88 87 83 82 82 83 83 85 87 88 87 85 85 85 84 81 82 82 79 74 85
144 130 122 117 112 110 104 99 100 99 98 97 95 94 94 93 93 93 93 92 92 91 89 88 85 83 80 80 81 83 83 84 86 85 82 80 80 79 79 82 83 79 79
128 125 120 118 113 111 108 104 103 103 100 99 98 96 95 94 93 93 94 93 94 94 92 89 87 81 78 76 76 77 76 82 84 82 82 76 75 76 76 80 78 74 74
128 127 123 119 116 114 111 108 107 107 105 103 101 100 97 97 95 94 95 95 94 93 91 90 88 83 81 78 74 73 75 81 82 80 78 69 70 75 75 75 74 71 71
126 128 128 124 121 118 115 111 110 109 109 107 105 102 99 98 99 97 96 96 95 94 90 90 89 86 82 79 75 76 80 82 82 74 77 71 68 75 75 72 71 69 67
128 128 130 128 125 121 119 115 114 113 113 111 110 107 104 101 98 97 98 96 96 98 97 95 92 86 80 78 80 82 86 88 78 71 70 70 69 76 75 72 69 66 63
138 137 135 132 128 125 122 122 122 119 117 115 113 113 108 104 101 100 98 95 96 101 101 98 95 89 82 80 82 90 91 88 79 74 68 67 73 77 74 70 67 63 60
147 144 141 138 134 133 130 130 131 127 123 120 121 119 115 111 106 101 100 98 99 102 105 103 97 92 85 81 86 90 90 90 83 77 69 69 80 78 74 71 64 60 61
145 140 138 140 139 138 137 137 136 134 130 127 126 124 121 117 111 108 104 102 102 102 104 104 99 92 84 85 87 89 90 88 77 75 77 71 80 79 77 70 65 65 63
148 146 148 146 145 147 146 145 142 142 141 135 130 123 116 109 106 111 109 105 104 102 104 103 96 87 82 83 85 90 88 80 73 70 70 76 78 77 74 69 67 65 62
147 151 155 156 154 160 163 157 151 148 148 144 139 130 114 103 102 108 117 113 108 104 103 98 92 85 79 80 85 89 81 75 73 70 72 81 78 75 71 69 66 63 60
157 167 167 170 170 172 165 150 151 150 147 147 147 142 132 124 117 113 115 114 111 105 96 88 85 77 73 75 82 86 79 74 71 68 75 82 79 77 72 68 65 61 59
168 165 168 169 170 169 158 155 161 155 151 155 156 151 140 124 114 106 103 99 93 87 74 70 69 71 80 84 90 89 87 80 69 64 71 78 78 77 75 72 67 62 60
160 163 165 166 166 169 162 164 163 153 149 148 156 154 141 129 121 113 113 105 92 87 80 75 75 83 83 85 96 94 91 88 76 67 67 73 75 76 76 72 68 65 62
161 165 165 164 164 162 152 161 152 154 152 155 153 157 149 138 137 124 120 111 103 102 99 93 89 89 86 86 95 97 93 91 82 72 65 72 75 73 73 70 68 66 63
168 169 166 163 162 154 152 152 147 147 148 136 136 154 152 144 138 126 116 104 104 105 100 100 100 96 90 88 83 89 94 95 89 79 67 66 71 70 67 66 65 65 65
168 166 168 165 161 153 150 154 141 136 133 123 131 140 143 144 139 130 121 111 115 107 98 91 90 88 83 80 76 80 86 87 89 81 73 62 60 64 65 63 61 61 62
162 161 168 163 156 151 149 145 139 130 126 127 126 126 133 138 139 128 118 111 114 105 101 95 89 84 78 77 75 74 74 80 85 86 79 70 65 63 62 62 59 58 60
163 158 155 150 152 148 143 132 130 123 121 123 119 115 123 127 132 128 118 117 116 106 104 109 93 99 95 87 83 71 63 67 70 86 82 76 74 72 67 63 61 58 58
161 153 150 148 145 138 129 115 103 96 102 101 115 123 128 130 128 124 121 121 120 108 98 100 102 92 101 108 94 73 52 51 59 67 80 82 79 77 73 67 61 56 54
152 151 152 150 151 140 135 132 129 135 134 113 121 127 126 128 127 127 129 125 123 122 122 117 109 97 92 105 91 64 37 38 47 45 58 72 72 76 75 69 65 59 53
166 163 163 162 160 157 158 159 155 150 144 141 118 107 119 131 136 137 134 131 129 119 112 112 114 113 113 118 119 106 60 21 22 33 43 66 66 75 76 73 71 65 59
174 173 174 176 168 165 156 133 112 88 70 63 79 105 115 136 139 132 138 137 133 131 135 137 135 132 142 134 137 137 138 170 22 10 30 46 57 66 68 73 73 69 64
185 179 173 175 173 172 157 146 145 143 151 183 183 168 138 118 129 135 136 134 139 139 144 153 147 141 137 149 11 90 142 148 143 104 13 24 44 60 59 72 74 71 69
181 176 171 169 171 170 160 155 149 148 160 158 147 142 139 115 126 133 133 133 138 143 147 145 138 139 137 150 158 126 95 84 106 134 138 32 36 34 43 65 80 78 74
175 171 166 166 171 168 161 159 158 160 159 150 155 160 165 148 147 145 138 138 148 153 160 155 148 143 142 132 127 127 139 139 148 137 145 144 105 25 36 44 62 77 80
Height
1531 1530 1530 1529 1529 1529 1529 1529 1529 1528 1529 1529 1529 1529 1529 1529 1529 1529 1529 1529 1529 1530 1530 1530 1530 1530 1530 1530 1530 1530 1530 1530 1530 1530 1530 1529 1529 1529 1529 1529 1528 1528 1528
1531 1531 1530 1530 1529 1529 1529 1529 1529 1529 1529 1529 1529 1529 1529 1530 1530 1530 1530 1530 1530 1530 1530 1530 1530 1530 1530 1530 1530 1530 1531 1531 1531 1530 1530 1530 1530 1530 1529 1529 1529 1529 1528
1532 1531 1531 1530 1530 1530 1529 1530 1529 1529 1529 1529 1530 1530 1530 1530 1530 1530 1530 1530 1530 1530 1530 1530 1530 1531 1531 1531 1531 1531 1531 1531 1531 1531 1531 1531 1530 1530 1530 1530 1529 1529 1528
1532 1532 1531 1531 1530 1530 1530 1530 1530 1530 1530 1530 1530 1530 1530 1530 1530 1531 1531 1531 1531 1531 1531 1531 1531 1531 1531 1532 1532 1532 1532 1532 1532 1532 1532 1531 1531 1531 1531 1530 1530 1529 1529
1533 1532 1532 1531 1531 1531 1530 1530 1530 1530 1530 1531 1531 1531 1531 1531 1531 1531 1531 1531 1531 1531 1531 1531 1532 1532 1532 1532 1532 1533 1533 1533 1533 1532 1532 1532 1532 1531 1531 1531 1530 1529 1529
1533 1533 1532 1532 1532 1531 1531 1531 1531 1531 1531 1531 1531 1531 1531 1532 1532 1532 1532 1532 1532 1532 1532 1532 1532 1532 1533 1533 1533 1533 1533 1533 1533 1533 1533 1533 1532 1532 1531 1531 1530 1530 1529
1534 1533 1533 1533 1532 1532 1531 1531 1531 1531 1532 1532 1532 1532 1532 1532 1532 1532 1533 1533 1532 1532 1533 1533 1533 1533 1534 1534 1534 1534 1534 1534 1534 1534 1534 1533 1533 1532 1532 1531 1531 1530 1529
1534 1534 1533 1533 1533 1533 1532 1532 1532 1532 1532 1532 1532 1533 1533 1533 1533 1533 1533 1533 1533 1533 1533 1534 1534 1534 1535 1535 1535 1535 1535 1535 1535 1535 1534 1534 1533 1533 1532 1532 1531 1530 1530
1534 1534 1534 1534 1533 1533 1533 1533 1533 1533 1533 1533 1533 1534 1534 1534 1534 1534 1534 1534 1534 1534 1535 1535 1536 1536 1536 1536 1536 1536 1536 1536 1536 1536 1535 1535 1534 1533 1533 1532 1531 1531 1530
1535 1535 1535 1535 1534 1534 1534 1534 1534 1534 1534 1534 1534 1534 1535 1535 1535 1535 1535 1535 1536 1536 1536 1536 1537 1537 1538 1537 1537 1537 1538 1537 1537 1537 1536 1535 1535 1534 1533 1533 1532 1531 1530
1536 1536 1535 1535 1535 1535 1535 1535 1535 1535 1535 1535 1535 1536 1536 1536 1536 1536 1537 1537 1537 1537 1538 1538 1538 1539 1539 1539 1539 1539 1539 1539 1538 1538 1537 1537 1536 1535 1534 1534 1533 1532 1531
1535 1536 1536 1536 1536 1536 1536 1536 1536 1536 1536 1536 1536 1537 1537 1537 1538 1538 1538 1538 1539 1539 1539 1540 1540 1540 1540 1540 1540 1540 1540 1540 1539 1539 1538 1538 1537 1536 1535 1535 1534 1533 1532
1535 1536 1536 1536 1537 1537 1536 1537 1537 1537 1537 1537 1537 1538 1538 1539 1539 1539 1539 1540 1540 1540 1540 1541 1541 1542 1542 1542 1542 1542 1542 1541 1541 1540 1540 1539 1538 1537 1537 1536 1535 1534 1532
1535 1536 1536 1537 1537 1537 1537 1537 1538 1538 1538 1538 1538 1539 1539 1539 1540 1540 1541 1541 1541 1542 1542 1542 1542 1543 1543 1543 1543 1543 1543 1543 1542 1541 1541 1540 1539 1539 1538 1537 1536 1535 1534
1535 1535 1536 1536 1537 1537 1538 1538 1538 1538 1538 1539 1539 1539 1540 1540 1541 1541 1542 1542 1542 1543 1543 1543 1544 1544 1544 1544 1544 1544 1544 1544 1544 1543 1542 1541 1541 1540 1539 1539 1538 1536 1535
1534 1535 1536 1536 1537 1538 1538 1538 1538 1539 1539 1539 1539 1540 1541 1541 1542 1542 1543 1543 1543 1544 1544 1544 1545 1545 1545 1545 1545 1546 1546 1545 1545 1544 1543 1543 1542 1542 1541 1540 1539 1538 1536
1533 1535 1535 1536 1537 1537 1538 1538 1539 1539 1540 1540 1540 1541 1541 1542 1542 1543 1543 1544 1544 1545 1545 1545 1546 1546 1546 1546 1547 1547 1547 1547 1546 1546 1545 1545 1544 1543 1543 1542 1541 1539 1538
1533 1534 1535 1536 1537 1537 1538 1538 1539 1539 1540 1540 1541 1541 1542 1542 1543 1543 1544 1544 1545 1545 1546 1547 1547 1547 1547 1548 1548 1548 1549 1548 1548 1548 1547 1546 1546 1545 1544 1544 1542 1541 1540
1532 1533 1534 1535 1536 1537 1538 1538 1539 1540 1540 1541 1541 1542 1542 1543 1543 1544 1544 1545 1546 1546 1547 1547 1548 1548 1549 1549 1549 1550 1550 1550 1550 1549 1549 1548 1548 1547 1547 1546 1544 1543 1542
1531 1533 1533 1535 1536 1537 1538 1538 1539 1540 1540 1541 1542 1542 1543 1543 1544 1544 1545 1545 1546 1547 1547 1548 1549 1549 1550 1550 1550 1551 1552 1552 1551 1551 1551 1550 1550 1549 1548 1547 1546 1545 1544
1530 1532 1532 1534 1535 1536 1537 1537 1538 1539 1540 1541 1542 1543 1543 1543 1544 1544 1545 1546 1546 1547 1548 1549 1549 1550 1550 1551 1551 1552 1553 1553 1553 1553 1553 1552 1552 1551 1551 1549 1548 1547 1545
1528 1530 1531 1532 1533 1534 1536 1537 1538 1539 1540 1541 1542 1543 1543 1544 1544 1545 1545 1546 1547 1547 1548 1549 1550 1550 1551 1552 1552 1552 1554 1556 1555 1555 1555 1554 1554 1553 1552 1551 1550 1549 1547
1526 1528 1529 1530 1532 1533 1534 1536 1537 1538 1539 1540 1541 1542 1543 1544 1544 1545 1546 1546 1547 1548 1548 1549 1550 1551 1551 1552 1552 1553 1553 1554 1556 1557 1556 1556 1555 1554 1554 1553 1552 1551 1550
1524 1526 1527 1529 1530 1531 1533 1534 1535 1536 1537 1539 1540 1541 1542 1543 1544 1545 1545 1546 1547 1548 1549 1549 1550 1551 1552 1552 1552 1553 1553 1553 1554 1556 1557 1557 1556 1556 1555 1555 1554 1553 1551
1522 1524 1525 1527 1528 1530 1531 1532 1534 1535 1537 1538 1540 1541 1542 1543 1544 1544 1545 1546 1547 1548 1549 1549 1550 1551 1551 1552 1552 1552 1553 1553 1554 1554 1556 1557 1557 1557 1556 1556 1555 1554 1553
1520 1522 1523 1525 1526 1528 1529 1531 1532 1534 1536 1537 1539 1540 1541 1542 1543 1544 1545 1546 1547 1548 1548 1549 1550 1550 1551 1552 1552 1552 1553 1553 1553 1554 1555 1556 1557 1558 1557 1557 1556 1556 1555